Wind_Speed
30 31 31 31 32 32 31 31 32 32 31 30 29 29 29 28 27 26 26 26 26 27 27 26 25 23 22 21 19 18 16 14 12 11 10 9 10 10 10 11 11 11 12 12 13 12 11 10 7 5 4 4 4 5 6 7 7 7 8 10 11 12 12 12 12 11 11 11 10
31 31 32 32 32 32 32 31 32 32 31 30 29 29 29 28 26 26 26 26 26 27 26 24 22 21 19 18 16 14 13 12 12 12 12 13 12 12 11 11 11 11 12 13 15 16 17 17 14 12 10 9 9 9 9 10 10 11 11 12 13 13 13 13 12 12 11 11 11
31 32 32 32 32 32 30 30 30 30 30 29 29 29 29 28 27 27 27 28 28 27 26 24 21 19 17 16 14 12 11 11 11 12 12 12 12 12 11 11 11 11 12 14 16 18 19 20 18 17 16 14 13 13 13 13 13 14 14 14 14 14 14 14 13 12 12 12 12
31 31 31 31 31 30 30 29 30 30 29 28 29 29 29 29 29 28 29 29 29 27 25 23 20 18 16 15 14 12 10 10 10 10 10 11 11 11 11 11 11 12 14 15 16 17 18 18 18 17 17 16 15 15 15 15 15 15 16 16 15 15 15 15 14 13 13 13 13
30 30 30 30 30 30 30 30 30 29 28 28 29 30 30 30 30 30 30 30 29 27 25 22 20 18 16 16 15 13 12 11 10 10 9 9 9 10 11 12 13 14 14 14 14 14 15 15 15 15 15 16 16 15 15 15 15 15 16 16 16 16 15 15 14 14 13 14 14
29 29 30 29 30 30 30 30 30 30 29 29 30 30 31 31 31 30 30 29 28 27 25 22 21 19 18 17 16 14 13 12 11 10 9 8 8 9 11 13 14 13 12 10 10 10 10 11 12 13 14 15 15 15 14 14 14 14 15 15 15 15 14 13 13 13 13 13 14
29 29 30 30 30 31 31 31 31 31 31 30 30 30 31 31 31 30 29 28 28 27 25 23 22 20 18 17 16 15 13 12 11 10 9 8 9 10 12 13 12 11 10 8 8 7 8 8 9 10 11 12 13 13 13 13 13 13 14 13 13 12 12 11 11 11 11 12 13
29 29 30 30 31 31 31 32 32 31 31 30 30 30 30 30 30 29 29 28 27 26 25 23 21 19 18 17 16 14 13 12 11 10 9 9 11 12 12 11 10 9 8 8 7 7 7 7 7 8 9 10 11 11 12 12 12 12 12 12 11 10 10 9 9 9 10 11 12
30 30 31 31 31 32 32 32 32 31 30 29 29 30 30 30 29 29 28 28 27 25 24 22 21 19 18 16 15 14 13 12 10 9 9 11 13 13 11 9 8 7 7 7 7 6 6 6 6 7 7 8 8 9 10 11 11 10 10 10 9 9 8 8 8 8 9 10 11
30 31 31 32 32 32 32 32 31 30 29 29 29 29 29 29 28 28 28 27 26 25 23 22 21 19 18 16 15 13 12 10 8 8 11 13 14 12 9 7 7 7 7 6 6 5 5 5 5 5 5 6 7 7 8 9 9 9 9 9 9 9 8 8 8 8 8 9 10
31 31 32 32 32 32 32 31 31 30 28 28 28 28 28 28 28 27 27 27 26 24 23 22 21 19 17 15 14 12 10 8 7 9 12 13 11 9 8 7 7 7 6 5 4 4 3 3 3 3 4 4 5 6 7 8 9 9 9 9 9 9 9 9 9 9 8 9 9
31 32 32 32 32 32 31 30 29 28 27 27 28 28 28 28 27 28 28 27 26 25 24 22 21 19 17 15 13 11 9 7 8 10 11 11 9 7 7 7 6 5 5 4 3 3 3 3 4 4 4 5 6 6 7 8 9 10 10 10 10 10 10 10 10 9 9 9 9
32 32 32 31 31 31 30 29 28 27 26 27 27 28 28 28 28 28 28 28 27 26 24 23 21 19 16 14 12 9 8 7 8 9 9 7 6 6 5 5 5 5 5 4 4 5 5 5 6 6 6 7 7 7 8 9 10 11 11 11 11 11 11 11 10 10 10 9 9
32 32 31 31 30 29 28 27 26 25 25 26 27 28 28 28 29 29 29 29 27 25 24 23 21 19 15 13 11 9 8 7 7 7 6 5 4 4 5 5 6 6 6 7 7 7 7 8 8 8 8 8 8 8 9 10 10 11 12 12 12 12 12 12 11 11 10 10 10
32 31 31 30 29 28 27 26 25 24 25 26 27 28 28 28 28 29 30 29 27 25 23 22 20 16 13 10 8 8 8 8 7 5 4 3 4 5 6 7 8 9 9 9 9 10 10 10 10 10 10 10 10 9 9 10 10 11 12 12 13 12 13 12 12 11 11 10 10
31 31 30 29 28 26 26 25 24 24 25 26 27 27 26 27 28 29 29 28 26 23 21 18 15 12 9 8 9 11 11 9 6 4 3 4 5 7 9 10 11 12 12 13 12 12 12 12 12 11 11 10 10 9 9 10 10 11 12 13 13 13 13 13 13 12 11 11 10
30 30 29 27 26 26 25 25 25 25 25 26 26 25 25 26 28 28 27 26 24 21 17 13 11 10 11 12 13 12 10 7 5 4 5 6 8 9 11 12 13 15 15 16 15 14 13 12 11 11 10 10 10 10 10 10 11 11 12 12 13 14 14 14 13 12 12 11 11
30 29 27 26 25 25 25 25 25 25 25 24 24 24 25 26 27 27 25 23 20 17 14 13 13 14 15 15 13 10 8 6 5 6 7 9 10 11 13 14 15 16 17 16 15 13 12 11 10 10 10 10 10 10 11 11 12 12 12 12 12 13 14 14 14 13 12 12 12
29 27 26 25 24 24 24 24 24 24 23 22 22 23 24 25 25 24 22 19 17 15 14 14 15 16 16 15 13 11 9 8 8 9 10 11 12 13 14 15 16 16 15 14 12 11 10 10 10 10 10 10 11 11 12 12 13 13 13 13 12 13 14 14 14 14 13 13 14
27 26 24 23 23 23 23 23 23 21 20 20 21 22 23 23 23 21 19 16 15 14 14 15 16 16 15 15 14 13 12 12 12 12 13 13 14 14 15 15 15 13 12 11 10 9 9 9 9 9 10 10 11 12 13 13 14 14 13 13 13 13 14 14 15 15 15 15 15
25 24 23 22 22 22 22 22 20 18 18 19 20 20 20 21 20 19 17 15 14 14 15 15 15 15 15 15 15 15 14 14 13 13 13 14 14 14 14 13 12 11 9 9 8 8 8 9 9 9 10 11 12 13 13 14 14 14 14 13 13 14 14 15 16 16 16 16 16
23 22 21 21 21 21 20 19 17 16 17 18 18 18 18 18 18 17 15 14 14 14 14 14 14 15 15 16 16 16 15 14 14 13 13 13 13 13 12 11 10 9 9 9 9 9 9 10 10 11 11 12 13 14 14 15 15 14 14 14 14 15 15 16 16 17 17 17 17
21 20 20 20 20 19 18 17 16 15 16 17 17 16 16 16 15 15 14 14 14 14 14 14 14 15 15 16 16 16 15 14 14 13 12 12 12 11 11 10 10 10 10 10 11 11 12 12 12 13 13 14 15 15 15 16 16 15 15 15 15 16 16 17 17 18 18 18 18
20 19 18 18 18 18 17 16 15 15 16 16 15 15 15 14 14 13 13 14 14 14 14 14 15 15 15 15 15 15 15 15 14 13 12 12 11 10 10 10 11 11 12 12 13 14 14 14 14 15 15 15 16 16 16 17 17 17 17 17 17 17 17 18 18 18 19 19 19
18 17 17 17 17 16 16 15 15 15 15 15 15 14 14 14 14 14 14 14 14 14 14 14 15 15 15 15 15 15 15 14 14 13 12 11 11 10 11 11 12 12 13 13 14 15 15 15 16 16 16 16 17 17 17 18 18 18 18 18 18 18 19 19 19 19 20 20 20
17 16 16 16 15 15 16 15 15 15 15 15 15 15 15 15 15 15 15 15 15 15 15 15 15 15 15 15 15 14 14 13 13 12 12 11 11 11 11 12 12 12 13 13 14 14 15 15 16 17 17 18 18 19 19 19 19 19 19 19 19 20 20 20 21 21 20 20 20
16 16 16 15 15 15 15 15 15 15 15 15 15 15 15 15 15 15 15 15 15 15 15 15 16 16 15 14 13 13 12 11 11 11 11 10 10 11 11 12 12 13 13 13 14 14 14 14 15 16 17 19 20 20 21 21 21 21 20 21 21 21 22 22 22 22 21 20 19
15 15 15 15 14 15 15 14 15 15 15 15 15 15 15 15 15 15 16 16 16 16 16 17 17 17 16 14 12 11 11 10 10 10 10 10 10 11 12 13 13 14 14 15 15 15 15 14 14 15 15 17 18 19 20 21 21 22 22 22 23 23 23 23 22 21 20 19 17
14 14 15 15 15 14 14 14 14 14 15 15 15 15 15 15 15 15 16 17 17 17 18 18 18 17 15 13 11 10 10 10 10 10 10 10 11 12 13 14 14 15 16 16 16 16 16 15 15 15 15 15 16 17 18 19 20 21 21 22 23 23 23 23 22 21 19 17 16
13 13 14 14 14 14 14 14 14 14 15 15 15 16 16 16 16 16 17 18 19 19 19 19 18 17 14 11 10 9 9 9 9 10 10 11 12 13 14 15 15 16 17 17 17 17 16 16 16 16 16 16 16 16 17 17 18 19 19 20 21 21 21 21 21 20 18 16 14
12 13 13 14 14 14 14 14 15 15 16 16 17 17 18 18 18 18 18 19 19 19 19 18 18 15 12 9 9 8 8 8 9 10 11 13 13 14 15 16 16 17 17 17 17 17 17 17 17 17 17 17 17 18 18 18 18 19 19 19 19 19 19 19 19 18 16 14 13
11 12 13 14 14 14 14 15 16 16 17 18 18 19 19 20 19 19 19 20 20 20 19 18 16 13 9 7 7 6 7 8 10 11 12 13 14 15 16 16 17 17 16 17 17 17 18 18 18 18 18 18 19 19 19 19 19 19 20 19 19 18 18 17 17 16 15 14 13
10 11 12 13 14 14 15 15 16 17 18 19 19 20 21 21 20 20 20 20 20 20 19 18 14 10 7 5 5 6 7 9 11 12 13 14 15 16 16 17 16 16 16 16 17 17 18 18 18 19 19 20 20 20 20 20 20 20 20 20 19 18 17 17 16 16 16 16 16
10 11 12 13 14 14 15 15 16 17 18 19 19 20 21 21 21 21 21 20 20 19 18 15 11 7 4 4 5 6 8 10 11 12 13 14 15 16 17 17 16 15 15 15 16 17 18 18 19 19 20 20 21 21 21 21 20 20 20 20 20 19 19 18 18 19 19 19 20
9 11 12 13 13 14 15 15 16 17 17 18 19 20 20 21 21 21 21 20 19 17 15 12 8 5 3 4 6 7 9 10 11 12 13 14 15 17 17 17 16 15 14 14 15 16 17 18 19 20 20 21 21 21 21 21 21 21 21 21 20 20 20 20 21 21 21 21 21
10 11 12 13 14 14 15 15 16 16 17 17 18 19 20 20 21 21 21 19 18 16 13 10 6 4 4 5 7 9 9 10 11 12 13 14 16 17 17 16 15 15 14 14 14 15 16 17 18 19 20 20 21 22 22 22 22 22 22 21 21 21 21 21 22 22 22 21 21
10 11 13 14 15 15 15 15 16 16 16 17 18 18 19 20 21 21 20 18 17 14 11 8 6 5 5 7 8 9 10 10 11 12 13 14 15 16 16 16 15 15 14 13 14 15 15 16 17 18 19 21 22 23 23 24 23 23 22 21 21 21 21 21 21 21 20 20 20
11 12 13 14 15 15 15 15 16 16 16 17 17 18 18 20 20 20 19 17 15 13 10 7 5 5 7 8 9 9 10 10 11 12 13 14 15 16 16 15 15 14 14 13 13 14 15 16 16 17 19 21 22 23 24 24 23 23 22 21 21 21 21 20 20 19 19 18 19
12 13 14 15 15 15 15 15 15 15 16 16 17 17 18 19 20 19 17 14 12 10 8 6 6 6 8 9 9 10 10 11 12 13 13 14 15 15 15 14 14 14 13 13 13 14 15 16 17 18 19 21 23 23 24 23 23 22 22 21 21 21 20 19 19 18 18 19 19
13 14 14 14 15 15 15 15 15 15 15 16 17 18 18 19 18 17 15 11 9 8 7 6 7 8 9 10 10 10 10 11 12 13 13 14 14 14 14 14 14 13 13 13 14 15 16 17 18 19 21 22 22 23 23 22 22 21 21 21 20 20 19 19 18 18 18 19 20
13 14 14 14 14 14 14 14 15 15 15 16 17 18 18 18 17 15 12 9 7 6 6 7 8 9 10 10 10 10 11 12 13 13 13 13 13 13 13 13 13 13 13 14 15 16 17 18 19 21 21 22 22 22 22 21 21 21 21 21 20 19 18 18 18 18 18 19 20
Wind_Direction
15 14 12 11 9 8 7 6 5 5 4 3 1 359 358 357 355 353 352 352 350 349 349 348 348 347 346 346 348 350 352 356 6 16 23 29 34 34 32 29 26 23 18 13 8 4 1 359 358 3 17 27 35 42 44 41 30 22 20 22 19 15 12 14 15 16 16 18 18
14 12 10 9 8 7 5 4 3 2 1 359 358 356 356 355 354 352 350 349 349 348 348 348 347 346 346 348 353 2 12 22 29 34 36 35 33 30 27 28 28 27 24 20 15 10 6 3 5 10 15 19 23 29 32 28 24 21 21 22 19 17 18 20 21 22 22 23 24
13 11 9 9 8 7 5 3 1 360 358 356 355 354 353 353 353 351 349 347 347 347 347 346 343 342 342 344 348 358 12 18 19 19 18 17 16 16 17 19 22 22 21 18 14 9 5 2 3 6 10 13 17 22 26 24 21 22 25 27 26 26 28 28 28 27 27 27 27
12 11 10 8 7 6 4 2 360 358 356 353 352 351 351 351 350 349 347 346 344 344 344 342 338 338 339 339 338 342 349 351 350 351 355 359 3 6 8 8 9 12 15 15 14 12 10 7 5 5 7 9 14 21 25 27 28 30 33 34 33 33 33 32 31 29 29 29 30
11 10 9 7 5 4 2 360 357 355 353 350 349 349 349 348 347 347 345 344 341 340 338 336 333 332 333 332 330 329 329 329 328 329 331 337 344 350 352 353 357 3 8 11 15 18 18 16 13 11 11 12 18 24 28 29 32 34 35 34 33 32 31 30 29 28 28 29 30
9 8 6 5 2 0 358 356 354 351 349 348 347 347 346 345 344 343 343 341 338 335 333 330 327 327 327 326 323 321 319 318 317 314 313 315 324 334 341 346 349 353 358 5 12 19 23 22 20 18 17 17 19 23 26 27 28 28 27 27 25 24 23 24 23 24 24 26 28
8 6 4 1 359 356 354 352 349 348 346 345 344 343 342 341 340 340 340 338 335 332 328 325 324 323 323 321 319 316 314 311 309 307 308 313 322 333 341 345 346 347 352 360 9 19 24 25 25 24 22 21 20 20 20 20 19 18 17 17 15 13 14 16 16 17 18 21 23
5 3 1 358 355 353 350 348 347 345 344 343 342 340 339 338 337 337 337 336 333 329 326 323 322 321 320 318 316 313 310 307 306 307 314 324 334 341 344 345 347 352 359 6 15 23 28 32 29 27 25 22 19 17 15 13 10 8 6 5 3 2 3 5 7 9 11 13 15
2 360 357 354 352 350 348 346 345 344 343 341 339 338 337 336 336 336 336 335 332 329 325 322 320 318 317 315 314 311 308 307 308 314 327 339 344 344 345 351 1 12 18 20 24 28 31 32 31 28 25 20 15 11 8 5 1 357 354 352 350 349 348 349 352 356 360 3 5
0 357 354 352 350 348 346 345 344 344 342 340 338 337 336 336 336 336 336 334 332 328 324 320 318 316 314 312 310 309 308 308 312 327 339 344 345 348 356 10 25 35 36 31 28 29 30 30 30 27 22 16 8 2 358 355 350 345 341 338 336 334 333 333 335 340 346 350 353
358 355 353 351 348 347 345 345 344 343 341 339 337 336 336 336 335 335 334 333 331 327 322 318 316 314 311 309 307 306 305 306 316 331 340 344 349 359 15 28 35 38 37 30 23 18 16 15 10 3 359 357 353 347 343 340 336 331 328 325 323 321 319 320 322 326 331 336 339
356 354 351 349 347 346 345 344 343 342 340 338 337 336 336 335 334 333 332 331 329 325 321 318 315 311 308 305 303 301 300 302 316 331 341 348 358 14 26 29 27 23 18 10 358 347 338 330 326 324 326 329 331 329 327 324 322 319 316 314 312 310 309 309 311 313 316 320 326
355 353 350 348 347 346 345 344 342 341 339 337 337 336 336 335 333 332 331 330 328 325 321 317 313 308 304 301 298 294 293 300 320 335 346 358 11 19 18 10 359 351 343 334 325 318 312 310 310 313 317 319 319 318 316 313 311 309 307 305 304 303 302 300 301 301 303 307 313
354 352 350 347 346 345 344 343 341 340 338 337 337 337 336 335 334 334 334 334 332 328 324 317 311 305 300 295 292 292 300 317 334 347 359 9 9 359 347 337 332 328 324 319 313 309 306 305 308 311 313 315 315 314 312 309 307 305 302 300 298 297 296 294 293 292 293 297 305
354 351 349 347 346 345 344 343 341 340 339 338 338 338 338 337 338 340 341 340 338 334 329 321 312 304 298 296 301 316 332 343 350 359 5 355 335 323 318 317 318 319 318 315 310 307 304 304 307 309 310 311 312 313 311 310 307 305 301 299 296 293 291 289 287 286 287 292 303
353 350 348 347 346 345 344 343 342 341 340 339 340 340 341 343 346 349 349 347 344 341 337 329 321 316 317 327 338 345 348 348 348 346 336 320 313 310 310 312 314 315 314 312 308 306 304 305 306 306 306 306 308 310 312 312 310 307 303 299 294 291 288 286 285 284 287 295 306
352 350 348 347 347 346 345 344 343 342 341 342 343 346 349 352 355 356 355 352 350 349 349 350 350 353 355 354 354 353 351 345 337 324 315 312 312 312 312 313 314 314 314 311 309 307 305 303 302 300 300 300 303 307 311 313 313 311 307 300 293 287 285 284 284 286 290 299 310
351 350 349 349 348 348 347 346 345 344 345 347 351 356 360 1 1 0 358 356 356 359 5 10 10 6 1 359 358 357 356 349 337 325 319 317 316 316 316 317 317 316 315 314 312 309 305 301 298 296 297 300 305 310 313 315 315 315 312 304 293 284 281 282 284 288 295 303 313
352 351 351 351 350 349 348 347 347 347 350 356 2 6 7 6 5 3 1 1 3 7 10 10 6 4 3 2 2 1 357 349 338 331 326 323 322 320 320 319 319 319 318 317 315 312 308 303 300 300 303 308 312 315 317 318 319 319 317 311 298 288 283 284 287 292 298 306 313
353 352 352 352 352 351 349 348 348 352 359 7 12 13 12 10 8 5 3 4 5 6 5 4 3 4 4 2 360 355 351 344 337 333 330 328 325 324 323 323 322 323 324 324 323 320 318 315 313 314 316 318 321 322 323 323 323 323 321 316 306 297 292 291 293 297 302 307 312
355 354 354 354 353 352 350 349 352 0 10 16 17 16 14 12 10 7 4 1 360 360 360 2 4 4 1 358 354 351 348 344 340 336 333 331 330 329 329 329 330 332 334 336 337 336 334 332 331 330 329 329 328 328 327 327 326 325 322 317 311 305 301 299 299 301 304 306 309
356 356 357 356 355 353 352 353 360 9 17 20 19 17 16 15 13 8 3 358 356 357 360 3 5 3 1 358 355 352 349 347 344 341 339 338 337 338 339 341 344 348 350 352 352 351 348 345 343 340 337 335 333 332 330 329 327 324 320 316 310 307 304 301 301 301 302 303 304
357 358 359 358 356 355 356 0 8 16 20 20 19 18 17 16 14 11 6 1 360 1 3 5 5 3 1 358 355 352 350 348 347 347 347 349 350 352 354 357 359 1 2 2 0 357 354 351 347 343 340 337 334 331 329 327 324 321 316 312 308 305 303 301 299 299 299 299 299
359 360 360 359 358 359 3 7 13 17 19 19 18 17 16 15 14 13 11 9 7 6 5 4 3 1 359 356 353 350 349 349 350 353 356 359 3 5 7 7 8 8 7 5 2 358 355 351 347 343 339 335 332 329 326 323 320 317 313 309 306 303 301 299 298 297 297 296 295
0 1 1 360 1 5 10 13 16 18 18 17 16 15 14 13 13 13 12 10 8 5 2 1 359 357 354 351 349 347 347 350 355 359 3 5 7 9 10 10 10 8 6 3 360 357 353 349 345 340 336 332 328 325 323 320 318 315 312 309 306 303 301 300 299 298 297 296 294
2 3 3 2 5 10 14 17 17 17 16 15 13 12 11 11 10 9 7 4 1 359 357 356 355 353 351 349 347 346 349 353 359 4 8 9 9 9 9 9 8 6 3 360 357 354 351 346 342 336 331 327 324 322 320 318 316 314 311 308 306 304 303 302 302 302 301 299 296
5 6 5 4 8 12 15 16 16 15 13 12 10 8 8 8 5 3 359 357 355 353 353 353 354 353 351 350 350 352 357 1 5 9 11 12 11 10 8 6 3 1 358 356 353 351 348 344 340 334 329 324 321 319 318 316 315 313 311 309 308 306 305 305 306 307 307 304 299
7 8 7 7 9 12 13 13 12 11 10 8 5 4 3 3 1 358 355 353 352 351 352 353 354 353 353 354 357 1 5 8 10 11 11 10 9 8 6 3 1 358 355 353 351 348 346 342 339 334 330 326 323 320 318 316 315 314 313 312 311 310 309 309 310 310 309 305 299
8 8 8 8 9 10 10 9 8 6 4 2 360 358 358 358 357 354 353 352 352 351 351 352 352 352 354 357 360 2 4 5 6 5 5 5 5 4 3 1 359 357 354 352 350 348 346 343 340 337 334 331 328 325 322 320 319 317 316 315 314 313 312 312 311 310 307 302 295
7 7 6 6 6 6 5 4 3 1 359 357 355 354 354 354 353 352 352 351 351 350 349 349 349 351 353 354 355 355 357 357 358 360 2 3 3 3 1 359 357 355 353 352 350 348 346 345 343 341 340 338 336 334 331 329 326 324 322 320 318 316 315 313 312 310 306 301 294
2 2 1 0 0 1 0 359 358 357 355 354 353 352 351 351 350 350 350 350 349 347 346 347 349 349 349 346 345 347 351 355 359 2 3 3 2 1 359 358 356 355 354 353 350 348 346 346 345 345 344 344 343 342 339 337 334 332 329 326 323 320 318 316 315 313 309 305 302
356 355 355 354 354 355 355 354 353 353 353 352 352 351 351 350 349 349 349 349 347 346 347 348 349 348 342 335 336 345 355 360 3 4 3 2 2 360 358 357 356 356 355 354 351 349 347 347 346 346 346 345 345 344 343 341 338 336 334 331 328 326 323 321 320 318 317 314 312
349 349 349 348 348 349 349 349 350 350 350 350 350 350 350 349 348 348 349 349 348 347 348 349 349 345 333 325 335 351 360 2 2 2 1 1 1 359 358 358 357 358 358 355 352 351 349 348 348 347 347 346 346 345 344 342 340 337 334 332 330 328 326 325 324 323 322 321 320
343 343 343 343 342 343 343 344 345 346 347 348 348 349 349 348 348 348 349 348 347 347 348 351 349 341 325 326 347 358 360 358 358 358 359 360 359 359 359 359 359 0 0 357 355 353 351 350 349 348 348 348 348 347 345 342 339 336 332 329 327 325 325 324 324 324 324 324 324
336 337 337 336 336 337 337 339 340 342 343 344 345 346 346 346 346 347 347 347 346 346 348 350 347 335 326 339 350 355 356 356 356 356 357 358 358 359 0 1 1 1 1 359 357 355 353 351 350 349 349 349 348 347 344 341 338 334 331 328 325 323 323 323 323 323 324 324 325
331 331 331 331 331 331 332 333 335 336 338 340 342 343 344 344 344 344 345 346 345 345 346 347 341 330 330 343 348 351 353 354 354 354 354 356 358 360 1 1 1 1 1 360 358 357 355 353 351 350 349 348 346 344 341 338 335 333 330 328 326 324 324 323 323 323 324 324 325
327 327 326 326 327 327 328 329 330 333 335 337 339 340 341 341 341 342 344 345 344 343 343 341 332 327 333 341 346 349 350 351 352 353 354 355 358 360 0 360 359 360 0 360 357 356 356 354 352 350 347 345 343 341 338 336 334 332 331 329 327 326 325 325 325 324 325 325 325
324 324 323 323 324 325 325 326 328 331 333 335 336 337 338 338 338 340 342 344 343 341 338 334 329 330 336 341 344 346 347 348 350 352 354 356 358 359 359 357 356 356 358 358 356 354 354 353 353 351 347 344 341 339 336 334 333 333 332 330 329 327 327 327 327 326 326 326 325
322 322 322 322 323 323 324 326 328 330 332 334 334 335 336 336 337 339 341 343 341 338 334 330 329 333 337 341 342 343 344 345 349 352 355 357 357 357 356 355 353 353 354 355 354 353 352 352 352 351 348 344 340 338 336 335 335 335 334 333 331 330 329 329 329 329 328 327 325
320 321 322 322 322 323 325 327 329 331 332 333 333 334 334 335 336 338 340 341 339 334 331 330 331 334 337 339 340 341 342 345 349 353 355 357 356 355 354 352 350 350 350 352 352 352 352 352 351 350 348 344 341 338 337 337 338 338 338 336 333 331 330 331 332 331 329 327 324
319 320 321 322 322 324 326 329 331 331 331 332 332 331 331 332 334 336 339 340 338 334 331 332 333 335 336 337 338 340 344 348 351 354 355 355 354 352 350 348 348 348 349 350 351 352 352 351 351 350 348 346 342 340 340 341 342 340 338 336 333 332 331 333 332 331 328 326 324
Height
847 847 846 845 845 844 844 843 842 841 840 839 839 837 836 835 834 833 832 831 829 828 827 825 824 822 820 819 817 816 814 814 813 812 811 811 810 809 809 809 809 809 809 810 810 810 810 808 806 804 803 801 800 799 799 799 799 799 799 797 797 797 798 798 798 798 798 798 797
848 847 846 846 845 844 844 843 842 841 840 839 839 838 837 836 834 833 832 830 829 828 827 825 824 822 820 819 817 816 815 814 814 813 812 811 810 810 809 809 808 808 808 809 809 810 811 810 809 806 804 803 802 801 800 799 798 799 799 798 798 798 798 799 799 799 799 798 797
848 847 846 846 845 844 844 843 842 841 840 839 839 838 837 835 834 833 831 830 829 828 826 825 823 822 820 819 818 816 815 814 814 814 813 812 811 811 810 809 809 808 807 807 808 809 810 811 810 809 807 805 804 803 802 800 799 799 799 799 799 799 799 799 800 800 799 799 798
848 847 847 846 845 845 844 843 842 841 840 839 839 837 836 835 834 832 831 829 828 827 826 824 823 822 820 819 818 816 815 814 814 813 813 813 812 812 811 810 809 808 807 807 808 809 810 810 811 810 809 808 806 804 802 801 800 800 800 800 800 799 800 800 800 801 800 799 798
848 848 847 846 846 845 844 843 842 841 840 839 838 836 835 834 833 831 830 829 827 826 825 824 823 821 820 819 818 816 815 814 813 813 812 812 812 812 811 811 810 809 808 808 808 809 809 810 811 811 810 809 807 805 803 802 802 802 801 801 800 800 801 801 802 802 801 800 798
848 848 847 846 846 845 844 843 842 841 839 838 837 835 834 833 832 831 829 828 826 825 824 823 822 820 819 818 817 816 815 814 813 812 811 811 810 810 810 810 809 809 808 807 807 808 808 809 809 810 810 809 807 806 805 804 803 802 802 801 801 801 802 802 803 802 802 800 799
849 848 847 846 845 844 843 842 841 840 839 837 836 834 833 832 831 830 829 827 826 824 823 822 821 819 818 817 816 815 814 813 812 812 811 810 810 809 809 809 809 808 808 807 807 807 807 807 808 808 808 808 807 806 805 804 804 803 802 802 802 802 802 803 803 802 801 800 799
849 848 847 846 845 844 842 841 840 839 837 836 835 834 832 831 830 829 827 826 825 823 822 821 820 819 817 816 815 814 814 813 812 811 811 810 810 809 808 808 807 807 807 807 807 806 806 807 807 807 807 806 806 806 805 805 804 803 803 803 803 802 803 803 802 802 801 799 798
848 847 846 845 844 843 841 840 839 838 836 835 834 833 831 830 829 827 826 825 824 822 821 820 819 818 817 816 814 814 813 812 812 811 811 810 810 809 808 807 806 806 807 807 807 806 806 806 806 805 805 805 805 805 805 804 804 803 803 803 803 802 802 802 802 801 800 799 798
847 846 845 844 843 842 840 839 838 836 835 834 833 831 830 829 828 827 825 824 823 822 820 819 818 817 816 815 814 813 812 812 811 811 811 810 810 809 808 807 806 805 806 806 806 806 806 805 804 804 804 804 804 804 804 804 803 803 803 802 802 802 802 801 801 800 799 798 797
847 846 844 843 842 840 839 838 836 835 834 833 831 830 829 828 827 825 824 823 822 821 820 819 818 817 815 814 814 813 812 811 811 810 810 810 809 809 808 807 806 806 805 806 806 806 805 804 804 803 803 802 802 802 802 802 802 802 802 802 802 801 801 800 800 799 798 797 797
846 845 844 843 841 840 838 837 835 834 833 832 830 829 828 827 826 824 823 822 821 820 819 818 817 816 815 814 813 812 811 811 810 810 810 809 809 809 808 807 807 806 806 806 806 805 805 804 804 803 802 801 801 800 801 801 801 801 801 801 801 800 800 799 799 798 797 797 796
846 844 843 842 840 839 837 836 834 833 832 831 830 828 827 826 824 823 822 820 819 818 817 817 816 815 814 813 812 811 811 810 810 809 809 809 809 809 808 808 807 807 806 806 805 805 805 804 804 803 802 801 800 800 800 800 800 800 800 800 799 799 799 798 797 797 796 795 794
845 844 842 841 839 838 837 835 834 833 831 830 829 828 826 824 823 822 820 819 818 817 816 815 814 814 813 812 812 811 810 810 809 809 809 809 809 809 808 808 807 807 806 806 805 805 804 804 803 802 802 801 800 800 800 800 799 799 799 799 799 798 797 797 796 796 795 794 793
844 843 841 840 839 837 836 835 834 832 831 829 828 827 825 824 822 820 819 817 816 815 814 814 814 813 813 812 812 811 810 810 809 809 809 809 809 809 808 808 807 807 806 806 805 805 804 804 803 802 802 801 800 800 799 799 799 799 798 798 797 797 796 796 795 794 794 793 792
843 842 841 839 838 837 835 834 833 832 830 829 828 826 824 823 821 819 818 816 815 814 814 814 813 813 813 813 812 812 811 810 810 810 809 809 809 808 808 807 807 807 806 806 805 804 804 803 803 802 801 801 800 800 799 799 799 798 798 797 796 796 795 794 794 793 792 791 790
843 841 840 839 837 836 835 834 833 831 830 829 827 825 824 822 820 819 818 816 815 814 814 814 814 814 814 813 813 812 811 811 810 810 809 809 809 808 807 807 806 806 806 805 804 804 803 803 802 801 801 800 800 799 799 799 798 797 797 796 796 795 794 794 793 792 791 790 789
842 841 839 838 837 835 834 833 832 831 829 828 827 825 824 822 820 819 818 817 816 815 815 815 815 814 814 813 813 812 811 811 810 810 809 809 808 808 807 806 806 805 805 804 804 803 802 802 801 801 800 800 799 799 799 798 797 797 796 795 795 794 794 793 792 791 790 789 788
841 840 839 837 836 835 834 833 831 830 829 828 826 825 823 822 820 819 819 817 817 816 816 816 815 815 814 814 813 812 812 811 810 810 809 809 808 807 807 806 805 805 804 803 803 802 802 801 801 800 800 800 799 799 798 797 797 796 795 795 794 793 793 792 791 790 789 788 788
841 839 838 837 836 835 834 832 831 830 829 827 826 824 823 822 821 820 819 818 818 817 817 816 815 815 814 814 813 812 812 811 810 810 809 808 808 807 806 805 805 804 804 803 802 802 802 801 801 800 800 799 799 798 798 797 796 795 794 794 793 793 792 791 790 789 788 788 787
840 839 838 837 836 834 833 832 831 830 828 827 826 825 824 822 821 821 820 819 819 818 817 816 816 815 814 814 813 812 811 811 810 809 809 808 807 806 805 805 804 804 803 803 802 802 801 801 801 800 799 799 798 798 797 796 795 794 794 793 792 792 791 790 789 789 788 787 786
840 839 838 837 835 834 833 832 831 829 828 827 826 825 824 823 822 821 821 820 819 818 818 817 816 815 814 814 813 812 811 810 809 809 808 807 806 806 805 804 804 804 803 803 802 802 801 801 800 800 799 799 798 797 796 795 794 794 793 792 792 791 790 789 788 788 787 786 785
840 839 838 836 835 834 833 831 830 829 828 827 826 825 824 823 822 822 821 820 819 819 818 817 816 815 814 814 813 812 811 810 809 808 807 807 806 805 805 804 804 804 803 803 802 802 801 801 800 799 799 798 797 796 795 794 794 793 792 791 791 790 789 788 787 786 786 785 784
839 839 837 836 835 834 833 831 830 829 828 827 826 825 824 823 822 822 821 820 819 819 818 817 816 815 815 814 813 812 811 809 809 808 807 806 806 805 805 804 804 804 803 803 802 802 801 800 799 799 798 797 796 795 794 794 793 792 791 790 789 789 788 787 786 785 784 784 783
839 838 837 836 835 834 833 831 830 829 828 827 826 826 825 824 823 822 821 820 819 819 818 817 816 815 814 814 813 812 810 809 809 808 807 806 806 805 805 804 804 804 803 802 802 801 800 800 799 798 797 796 796 795 794 793 792 791 790 789 788 787 786 785 785 784 783 782 781
839 838 837 836 835 834 833 831 830 829 829 828 827 826 825 824 823 822 821 820 819 819 818 817 816 815 814 813 812 811 810 809 809 808 807 806 806 805 805 804 804 803 802 802 801 800 800 799 799 798 797 796 795 794 793 792 791 790 789 788 787 786 785 784 783 783 782 781 780
839 838 837 836 835 834 833 832 831 829 829 828 827 826 825 824 823 822 821 820 819 819 818 817 816 815 814 813 812 811 810 809 809 808 807 806 806 805 804 804 803 802 802 801 800 800 799 799 798 797 796 795 794 793 792 791 790 789 788 787 786 785 784 783 782 781 781 780 779
839 838 837 836 834 834 833 832 831 830 829 828 827 826 825 824 823 822 821 820 819 819 817 816 815 814 814 813 812 811 810 809 809 808 807 806 806 805 804 804 803 802 801 801 800 799 798 798 797 796 795 794 793 792 791 790 789 789 788 787 786 784 784 782 781 780 779 779 778
838 837 836 835 834 834 833 832 831 830 829 828 827 826 825 824 823 822 821 820 819 818 817 816 815 814 814 813 812 811 810 809 809 808 807 806 805 805 804 803 802 802 801 800 799 799 798 797 796 795 794 794 792 791 790 789 789 788 787 786 784 784 782 781 780 779 778 777 776
838 837 836 835 834 834 833 832 831 830 829 828 827 826 825 824 823 822 821 820 819 818 817 816 815 814 814 813 812 811 810 809 809 808 807 806 805 804 804 803 802 801 800 800 799 798 797 796 795 795 794 793 792 791 790 789 788 787 786 784 784 782 781 780 779 778 777 775 774
837 837 836 835 834 833 832 831 831 830 829 828 827 826 825 824 823 822 821 820 819 818 817 815 815 814 813 812 811 811 810 809 808 807 807 806 805 804 804 803 802 801 800 799 798 798 797 796 795 794 793 792 791 790 789 788 787 786 785 784 783 781 780 779 778 777 776 775 774
837 836 835 834 834 833 832 831 830 829 829 828 827 825 824 824 822 821 820 819 818 817 816 815 814 814 813 812 811 810 809 809 808 807 806 806 805 804 803 802 802 801 800 799 798 797 796 795 794 794 793 792 791 790 789 788 787 786 784 783 782 781 779 778 777 776 775 774 773
836 835 834 834 833 832 831 830 830 829 828 827 826 825 824 823 822 821 820 819 818 816 815 814 814 813 812 811 810 810 809 809 808 807 806 805 805 804 803 802 801 800 799 799 798 797 796 795 794 793 792 791 790 789 788 787 786 785 784 783 781 780 779 778 777 776 774 774 773
835 834 834 833 832 832 831 830 829 828 827 826 825 824 824 823 821 820 819 818 817 816 815 814 813 812 812 811 810 809 809 808 807 807 806 805 804 804 803 802 801 800 799 799 797 796 795 794 794 792 791 790 789 788 787 786 785 784 783 781 780 779 778 777 776 775 774 773 772
834 834 833 833 832 831 830 829 829 828 827 826 825 824 823 822 821 820 819 818 817 816 814 814 813 812 811 811 810 809 809 808 807 806 806 805 804 803 802 802 801 800 799 798 797 796 795 794 793 791 790 789 788 787 786 784 784 782 781 780 779 778 777 776 775 774 773 772 770
834 833 833 832 831 830 829 829 828 827 826 825 824 823 822 821 820 819 819 817 816 815 814 813 813 812 811 810 809 809 808 808 807 806 805 804 804 803 802 801 800 800 799 798 797 796 795 794 792 791 789 788 787 786 784 783 782 781 780 779 778 777 775 774 774 772 771 770 769
833 833 832 831 830 829 829 828 827 826 825 824 824 823 822 821 820 819 818 817 815 814 814 813 812 812 811 810 809 809 808 807 807 806 805 804 803 803 802 801 800 799 799 798 797 796 794 794 792 791 789 788 786 785 784 782 781 779 779 777 776 775 774 773 772 771 770 769 768
832 832 831 830 829 829 828 827 826 825 824 824 823 822 821 820 819 818 817 816 815 814 813 813 812 811 811 810 809 809 808 807 806 805 805 804 803 802 801 801 800 799 798 797 796 795 794 793 792 791 789 787 786 784 783 781 780 779 777 776 775 774 773 772 771 770 769 768 767
831 831 830 829 829 828 827 826 825 824 824 823 822 821 820 819 818 817 816 815 814 814 813 812 812 811 811 810 809 809 808 807 806 805 804 804 803 802 801 800 799 799 798 797 796 795 794 793 791 790 789 787 785 784 782 780 779 778 776 775 774 773 772 771 770 769 768 767 766
831 830 829 829 828 827 826 825 824 824 823 822 821 820 819 818 817 816 815 815 814 813 813 812 812 811 810 810 809 808 808 807 806 805 804 803 802 802 801 800 799 798 797 796 795 794 793 792 791 789 788 786 784 783 781 779 778 777 775 774 773 772 771 770 769 768 767 766 765
830 829 829 828 827 826 825 824 824 823 822 821 820 819 818 817 816 816 815 814 814 813 812 812 811 811 810 809 809 808 807 806 805 804 804 803 802 801 800 799 799 798 797 796 795 794 793 791 790 789 787 786 784 782 781 779 778 776 775 774 772 771 770 769 768 767 766 765 764